Location: Guferjoch
(46.7462°N, 8.4506°E)
Time: 12:17:31
(UTC+00:00)

Cosmos 1447 Rocket - Pass Details

Date: 14 July 2020
Orbit: 955 x 995 km, 82.9° (Epoch: 07 August)

Event Time Altitude Azimuth Distance (km) Brightness Sun altitude
Rises 00:11:56 0° 350° (N) 3,701 8.8 -21.0°
Reaches altitude 10° 00:14:27 10° 350° (N) 2,754 7.9 -21.0°
Maximum altitude 00:20:48 85° 263° (W) 1,001 4.5 -20.7°
Enters shadow 00:23:37 36° 178° (S) 1,521 5.0 -20.6°
